Regional Weather Roundup
Issued by NWS

Home | Current Version | Previous Version | Text Only | Print | Product List | Glossary On
Versions: 1 2 3 4 5 6 7 8 9 10 11 12 13 14 15 16 17 18 19 20 21 22 23 24 25 26 27 28 29 30 31 32 33 34 35 36 37 38 39 40 41 42 43 44 45 46 47 48 49 50
000
ASUS43 KMPX 240901
RWRMN
WEATHER ROUNDUP FOR MINNESOTA
NATIONAL WEATHER SERVICE TWIN CITIES/CHANHASSEN MN
300 AM CST SAT FEB 24 2018


NOTE: "FAIR" INDICATES FEW OR NO CLOUDS BELOW 12,000 FEET WITH NO
SIGNIFICANT WEATHER AND/OR OBSTRUCTIONS TO VISIBILITY. N/A MEANS
CURRENT SKY AND/OR WEATHER CONDITIONS ARE NOT AVAILABLE.

MNZ060>063-068>070-241000-
   Twin Cities Metro

CITY           SKY/WX    TMP DP  RH WIND       PRES   REMARKS
TWIN CITIES    FAIR      14  11  87 SW5       30.25F FOG     WCI   6
ST PAUL        FAIR      11  10  96 CALM      30.27S FOG
CRYSTAL        FAIR       6   3  87 S3        30.23F
BLAINE         FOG        3   1  92 CALM      30.23S VSB 1/4
LAKEVILLE        N/A      3   3 100 CALM      30.24F FOG
EDEN PRAIRIE   FAIR      11   7  84 S3        30.23F FOG
SOUTH ST PAUL  FAIR       8   5  86 CALM      30.25F
LAKE ELMO      FAIR     N/A N/A N/A CALM      30.24F HAZE
$$
MNZ001>005-007-008-013>017-022>024-027-028-241000-
   Northwest Minnesota

CITY           SKY/WX    TMP DP  RH WIND       PRES   REMARKS
BEMIDJI        FAIR      -3  -6  87 CALM      30.16F
HALLOCK        FAIR       1  -2  85 S12       30.11F WCI -15
ROSEAU         FAIR       3   0  85 S9        30.12F WCI -11
WARROAD        FAIR       5   1  85 SW8       30.13F WCI  -8
THIEF RVR FALL FAIR      -1  -3  91 S8        30.15F WCI -15
CROOKSTON      FAIR      -6  -9  84 S7        30.16F WCI -20
FOSSTON        FAIR       0  -4  85 S6        30.15F WCI -12
DETROIT LAKES  FAIR      -4  -8  84 CALM      30.16F
MOORHEAD       FAIR      -2  -8  78 SE5       30.16F WCI -12
PARK RAPIDS    FAIR      -1  -7  75 CALM      30.15F HAZE
MAHNOMEN       FAIR       4   1  86 SE6       30.15F WCI  -7
$$
MNZ006-009>011-018-025>026-241000-
   North Central Minnesota

CITY           SKY/WX    TMP DP  RH WIND       PRES   REMARKS
BAUDETTE       FAIR       0  -3  87 S6        30.14F WCI -12
FLAG ISLAND    FAIR      -4  -8  84 SE7       30.12F WCI -18
INTL FALLS     FAIR      -2  -5  87 SW5       30.17F WCI -12
WASKISH        FAIR       5   3  92 CALM      30.17F
LONGVILLE      FAIR      -8 -11  84 CALM      30.19F
GRAND RAPIDS   FAIR      -2  -5  87 CALM      30.21F
CRANE LAKE     FAIR      -8  -9  92 CALM      30.22S
ORR            FAIR       1  -2  85 CALM      30.16S
COOK             N/A      1  -2  85 CALM      30.18F
WALKER         FAIR      -2  -4  89 E5        30.17F WCI -12
$$
MNZ012-019>021-037-241000-
   Northeast Minnesota

CITY           SKY/WX    TMP DP  RH WIND       PRES   REMARKS
DULUTH         FAIR      13   8  81 NW10      30.18S WCI   0
ELY            FAIR       0  -4  85 CALM      30.18S
HIBBING        FAIR      -7 -10  87 NW3       30.19F
DULUTH HARBOR  FAIR      16  10  79 SW7       30.25S WCI   6
TWO HARBORS    FAIR      18   9  68 W9        30.17S WCI   6
GRAND MARAIS     N/A     19   8  62 VRB5      30.21R WCI  12
G MARAIS ARPRT FAIR      10   1  67 W5        30.11F WCI   2
$$
MNZ029>031-032-039>041-046>048-054>057-064-241000-
   West Central Minnesota

CITY           SKY/WX    TMP DP  RH WIND       PRES   REMARKS
FERGUS FALLS   FAIR      -2  -8  78 E6        30.17F WCI -14
WHEATON        HAZE     -15 -18  84 CALM      30.19F VSB<1/4
MORRIS         HAZE     -13 -18  77 SE3       30.16F VSB 1/2
ALEXANDRIA     FAIR       0  -3  87 NE5       30.15F WCI -10
ELBOW LAKE     FAIR      -6 -10  86 NE3       30.16F
WADENA         FAIR      -8 -11  84 CALM      30.16F
GLENWOOD       FAIR      -6  -9  84 NE5       30.16F WCI -17
APPLETON       CLOUDY   -11 -17  77 CALM      30.20F
MADISON        CLOUDY    -8 -13  77 CALM      30.20F
WILLMAR        FAIR      -6  -9  84 CALM      30.20F
$$
MNZ033>034-036-042>043-049>051-058-059-241000-
   Central Minnesota

CITY           SKY/WX    TMP DP  RH WIND       PRES   REMARKS
ST CLOUD       FAIR      -4  -7  87 CALM      30.20F
SAUK CENTRE    FAIR      -9 -12  86 CALM      30.18F
PAYNESVILLE    FAIR     -12 -16  83 CALM      30.19F
AITKIN         FAIR      -6  -9  84 CALM      30.20F
PINE RIVER     FAIR      -8 -11  84 CALM      30.21F
BRAINERD       FAIR      -1  -7  75 CALM      30.20F
STAPLES        FAIR     -11 -15  84 CALM      30.17F
LONG PRAIRIE   FAIR      -8 -13  77 N3        30.17F
LITTLE FALLS   FAIR      -6 -15  65 CALM      30.21F
LITCHFIELD     FAIR       0  -4  85 CALM      30.20F
BUFFALO        FAIR      -1  -5  84 CALM      30.23F
MAPLE LAKE     FAIR      -1  -4  86 CALM      30.22F
HUTCHINSON     FAIR      -6  -9  84 CALM      30.22F
$$
MNZ037-044-045-052-053-241000-
   East Central Minnesota

CITY           SKY/WX    TMP DP  RH WIND       PRES   REMARKS
PRINCETON      FAIR      -2  -8  78 CALM      30.20F
CAMBRIDGE        N/A      9   3  78 N3        30.22F
RUSH CITY      FAIR       4   1  87 CALM      30.23F
MOOSE LAKE     FAIR       7   3  85 CALM      30.20F
HINCKLEY         N/A      0  -4  85 CALM      30.22F FOG
CLOQUET        FAIR      10   5  79 W3        30.19F
MCGREGOR       FAIR       3   0  85 CALM      30.21F
$$
MNZ071>073-080-081-089-090-097-098-241000-
   Southwest Minnesota

CITY           SKY/WX    TMP DP  RH WIND       PRES   REMARKS
MONTEVIDEO     CLOUDY    -6  -9  84 CALM      30.21F FOG
GRANITE FALLS  FOG       -4  -8  83 CALM      30.23F VSB 1/4
CANBY          CLOUDY    -6 -10  83 CALM      30.19F
MARSHALL       FOG       -1  -5  82 S3        30.20F VSB 1/2
REDWOOD FALLS  FOG        0  -1  96 CALM      30.21F VSB 1/4
OLIVIA         CLOUDY     1  -4  78 CALM      30.20F
PIPESTONE      FOG        7   3  85 CALM      30.12F VSB 1/4
WORTHINGTON    SNOW      12  10  92 NE8       30.16F VSB 1/4 WCI   0
JACKSON        SNOW       9   5  85 N3        30.16F VSB 1/4
TRACY          CLOUDY     9   7  91 CALM      30.17F FOG
SLAYTON        FOG       11   9  92 CALM      30.16F VSB 1/4
$$
MNZ065>067-074>077-082>085-091>093-241000-
   South Central Minnesota

CITY           SKY/WX    TMP DP  RH WIND       PRES   REMARKS
MANKATO        SNOW       4   0  83 SE3       30.23F VSB 1/2
NEW ULM        SNOW       0  -6  78 CALM      30.22F VSB 1/4
ST JAMES       FOG        1   0  92 CALM      30.22F VSB 1/4
FAIRMONT       FOG        7   4  87 CALM      30.21F VSB 1/4
GLENCOE        FAIR       1  -2  88 CALM      30.22F FOG
FARIBAULT      SNOW       3   1  92 CALM      30.23F VSB 1/4
OWATONNA       FOG        7   3  85 CALM      30.21F VSB<1/4
WASECA         FOG        5   1  85 CALM      30.23F VSB 1/4
ALBERT LEA     FOG       12   9  85 CALM      30.21F VSB 1/4
$$
MNZ078>079-086>088-094>096-241000-
   Southeast Minnesota

CITY           SKY/WX    TMP DP  RH WIND       PRES   REMARKS
ROCHESTER      FAIR      10   9  95 SE3       30.21F FOG
RED WING       FOG        9   5  85 SE5       30.25F VSB<1/4 WCI   0
STANTON          N/A      2  -1  85 CALM      30.23F FOG
DODGE CENTER   FOG        3   0  85 CALM      30.20F VSB<1/4
WINONA         FAIR      10   9  92 CALM      30.26F FOG
AUSTIN           N/A      9   7  92 CALM      30.21F FOG
PRESTON        FAIR      14  12  91 CALM      30.23F FOG
$$
ABBREVIATIONS USED IN REMARKS
   TC - TEMPERATURES IN CELSIUS
  WCI - WIND CHILL INDEX
   HX - HEAT INDEX
  VSB - VISIBILITY
$$




USA.gov is the U.S. government's official web portal to all federal, state and local government web resources and services.